BAW268 KLAX-EGLL

Flight info

Callsign BAW268
Flight time N/A
Altitude 33000
Route ORCKA5 LAS DCT BCE DCT MBW DCT RAP DCT DPR DCT GABOV/N0485F350 DCT GOSEP DCT FEDDY/M084F350 DCT LIBOR DCT 62N050W 62N040W 61N030W 59N020W DCT AGORI/N0485F350 DCT OSBOX DCT MIMKU DCT KELLY L10 WAL UY53 NUGRA
Aircraft B77W/H-SDE1E2E3FGHIJ2J3J4J5M1RWXY/LB1D1

Departure

Time 2026-04-26 01:32
Airport Los Angeles International Airport (KLAX)

Arrival

Time N/A
Airport London Heathrow Airport (EGLL)
Time Latitude Longitude Altitude Speed Heading
2026-04-26 00:29 33.94177 -118.41100 99 ft 0 kts 82°
2026-04-26 01:17 33.94176 -118.41102 99 ft 1 kts 83°
2026-04-26 01:17 33.94175 -118.41114 99 ft 3 kts 83°
2026-04-26 01:17 33.94173 -118.41139 98 ft 3 kts 83°
2026-04-26 01:17 33.94171 -118.41159 97 ft 2 kts 84°
2026-04-26 01:18 33.94170 -118.41180 97 ft 3 kts 102°
2026-04-26 01:18 33.94175 -118.41197 97 ft 3 kts 130°
2026-04-26 01:18 33.94184 -118.41208 98 ft 3 kts 162°
2026-04-26 01:18 33.94202 -118.41212 99 ft 3 kts 176°
2026-04-26 01:19 33.94221 -118.41214 99 ft 2 kts 174°
2026-04-26 01:19 33.94229 -118.41215 99 ft 1 kts 173°
2026-04-26 01:19 33.94230 -118.41215 99 ft 0 kts 173°
2026-04-26 01:21 33.94229 -118.41215 99 ft 1 kts 173°
2026-04-26 01:22 33.94199 -118.41210 99 ft 8 kts 173°
2026-04-26 01:22 33.94121 -118.41199 101 ft 15 kts 173°
2026-04-26 01:22 33.93995 -118.41181 101 ft 21 kts 173°
2026-04-26 01:22 33.93837 -118.41158 104 ft 23 kts 173°
2026-04-26 01:23 33.93773 -118.41130 106 ft 8 kts 122°
2026-04-26 01:23 33.93771 -118.41062 107 ft 8 kts 84°
2026-04-26 01:23 33.93777 -118.40991 106 ft 9 kts 83°
2026-04-26 01:23 33.93786 -118.40904 106 ft 12 kts 83°
2026-04-26 01:24 33.93796 -118.40800 107 ft 13 kts 83°
2026-04-26 01:24 33.93808 -118.40684 107 ft 15 kts 83°
2026-04-26 01:24 33.93821 -118.40549 108 ft 17 kts 84°
2026-04-26 01:24 33.93836 -118.40405 108 ft 18 kts 82°
2026-04-26 01:25 33.93851 -118.40255 109 ft 19 kts 84°
2026-04-26 01:25 33.93867 -118.40094 109 ft 20 kts 82°
2026-04-26 01:25 33.93884 -118.39922 109 ft 22 kts 84°
2026-04-26 01:25 33.93903 -118.39734 108 ft 24 kts 83°
2026-04-26 01:26 33.93924 -118.39536 108 ft 24 kts 83°
2026-04-26 01:26 33.93944 -118.39325 107 ft 26 kts 84°
2026-04-26 01:26 33.93970 -118.39106 108 ft 26 kts 83°
2026-04-26 01:26 33.93991 -118.38888 106 ft 27 kts 83°
2026-04-26 01:27 33.94015 -118.38663 107 ft 27 kts 83°
2026-04-26 01:27 33.94037 -118.38442 108 ft 27 kts 83°
2026-04-26 01:27 33.94060 -118.38218 108 ft 27 kts 83°
2026-04-26 01:27 33.94077 -118.38045 107 ft 9 kts 86°
2026-04-26 01:28 33.94041 -118.37997 110 ft 7 kts 167°
2026-04-26 01:28 33.94040 -118.37997 110 ft 0 kts 168°
2026-04-26 01:30 33.94045 -118.37998 110 ft 3 kts 168°
2026-04-26 01:30 33.94064 -118.38003 109 ft 3 kts 168°
2026-04-26 01:31 33.94078 -118.38006 108 ft 0 kts 168°
2026-04-26 01:31 33.94079 -118.38007 107 ft 2 kts 168°
2026-04-26 01:31 33.94014 -118.37999 110 ft 11 kts 186°
2026-04-26 01:31 33.93979 -118.38055 113 ft 7 kts 263°
2026-04-26 01:32 33.93966 -118.38209 111 ft 53 kts 264°
2026-04-26 01:32 33.93879 -118.39041 111 ft 148 kts 263°
2026-04-26 01:32 33.93717 -118.40618 230 ft 222 kts 263°
2026-04-26 01:32 33.93492 -118.42573 1309 ft 243 kts 261°
2026-04-26 01:33 33.93371 -118.44445 3036 ft 200 kts 265°
2026-04-26 01:33 33.93226 -118.46053 4037 ft 186 kts 263°
2026-04-26 01:33 33.93071 -118.47539 4723 ft 173 kts 263°
2026-04-26 01:33 33.92914 -118.48975 5034 ft 181 kts 262°
2026-04-26 01:34 33.92734 -118.50578 5037 ft 202 kts 258°
2026-04-26 01:34 33.92073 -118.52162 5028 ft 226 kts 226°
2026-04-26 01:34 33.90666 -118.53164 5008 ft 249 kts 197°
2026-04-26 01:34 33.88916 -118.53205 5197 ft 256 kts 167°
2026-04-26 01:35 33.87314 -118.52220 5819 ft 269 kts 140°
2026-04-26 01:35 33.86198 -118.50366 6450 ft 281 kts 111°
2026-04-26 01:35 33.85937 -118.48034 6994 ft 289 kts 81°
2026-04-26 01:35 33.86659 -118.45762 7591 ft 294 kts 51°
2026-04-26 01:36 33.88189 -118.44222 8249 ft 292 kts 19°
2026-04-26 01:36 33.90149 -118.43705 8914 ft 289 kts
2026-04-26 01:36 33.92171 -118.43398 9461 ft 297 kts 13°
2026-04-26 01:37 33.95321 -118.40113 10493 ft 323 kts 57°
2026-04-26 01:37 33.96545 -118.37738 10648 ft 347 kts 57°
2026-04-26 01:37 33.97899 -118.35206 10831 ft 370 kts 56°
2026-04-26 01:37 33.99385 -118.32536 11092 ft 391 kts 55°
2026-04-26 01:38 34.00928 -118.29807 11625 ft 402 kts 54°
2026-04-26 01:38 34.02533 -118.26980 12265 ft 411 kts 54°
2026-04-26 01:38 34.04149 -118.24135 13011 ft 416 kts 54°
2026-04-26 01:38 34.05801 -118.21221 13743 ft 423 kts 54°
2026-04-26 01:39 34.07476 -118.18263 14387 ft 429 kts 54°
2026-04-26 01:39 34.09161 -118.15284 14972 ft 432 kts 55°
2026-04-26 01:39 34.10848 -118.12299 14985 ft 436 kts 55°
2026-04-26 01:39 34.12561 -118.09263 14982 ft 435 kts 55°
2026-04-26 01:40 34.14268 -118.06236 14984 ft 433 kts 55°
2026-04-26 01:40 34.15947 -118.03257 14991 ft 433 kts 55°
2026-04-26 01:40 34.17658 -118.00219 15252 ft 439 kts 55°
2026-04-26 01:40 34.19391 -117.97139 16013 ft 442 kts 56°
2026-04-26 01:41 34.21099 -117.94101 16789 ft 444 kts 56°
2026-04-26 01:41 34.22857 -117.90970 17532 ft 448 kts 56°
2026-04-26 01:41 34.24598 -117.87867 18208 ft 453 kts 56°